User: anonymous   Login
Location: ??????
(55.8274°N, 37.9338°E)
Time: 01:10:32
(UTC+00:00)
Language:

CZ-2C R/B - Orbit

View from above orbital plane
View from above orbital plane
View from above satellite
View from above satellite

Ground track
Ground track

The orbit data is extracted from the following two-line orbital elements,

1 31114U 07010B   24174.40057934  .00000163  00000-0  94419-4 0  9999
2 31114  98.3334 310.1624 0058473 314.0391  45.5977 14.19798353890977
Epoch (UTC): 22 June 2024 09:36:50
Eccentricity: 0.0058473
inclination: 98.3334°
perigee height: 784 km
apogee height: 868 km
right ascension of ascending node: 310.1624°
argument of perigee: 314.0391°
revolutions per day: 14.19798353
mean anomaly at epoch: 45.5977°
orbit number at epoch: 89097

The dashed part of the orbit path shows where the satellite is in the earth's shadow,  

DLR